Weather History for KGCM - February, 2013

Change the Weather History Date:

Tuesday, February 19, 2013

  Actual Average (KTUL) Record (KTUL)
Temperature  
Mean Temperature 34 °F 43 °F  
Max Temperature 46 °F 54 °F 77 °F (1981)
Min Temperature 21 °F 32 °F 9 °F (1978)
Degree Days  
Heating Degree Days 32 22  
Month to date heating degree days 457  
Since 1 July heating degree days 2730  
Moisture  
Dew Point 23 °F    
Average Humidity 65    
Maximum Humidity 93    
Minimum Humidity 37    
Precipitation  
Precipitation 0.00 in 0.07 in 1.31 in (1955)
Month to date precipitation 1.16  
Year to date precipitation 2.82  
Sea Level Pressure  
Sea Level Pressure 30.29 in    
Wind  
Wind Speed 4 mph (NNE)    
Max Wind Speed 12 mph    
Max Gust Speed 17 mph    
Visibility 10 miles    
Events      
T = Trace of Precipitation, MM = Missing Value Source: NWS Daily Summary

Daily Weather History Graph

Daily Weather History Graph

Search for Another Location

Airport or City:

Trip Planner

Search our weather history database for the weather conditions in past years. The results will help you decide how hot, cold, wet, or windy it might be!

Date:

Astronomy

Feb. 19, 2013 Rise Set
Actual Time 7:04 AM CST 6:07 PM CST
Civil Twilight 6:38 AM CST 6:33 PM CST
Nautical Twilight 6:08 AM CST 7:03 PM CST
Astronomical Twilight 5:38 AM CST 7:33 PM CST
Moon 12:45 PM CST (2/19) 2:32 AM CST (2/19)
Length of Visible Light 11h 54m
Length of Day
11h 02m
Waxing Gibbous, 67% of the Moon is Illuminated
Feb 19
Waxing Gibbous
Feb 25
Full
Mar 4
Last Quarter
Mar 11
New
Mar 19
First Quarter

Hourly Weather History & Observations

Time (CST) Temp. Windchill Dew Point Humidity Pressure Visibility Wind Dir Wind Speed Gust Speed Precip Events Conditions
12:15 AM 33.8 °F 30.8 °F 23.0 °F 65% 30.20 in 10.0 mi East 3.5 mph - N/A   Clear
12:35 AM 32.0 °F 28.7 °F 23.0 °F 69% 30.20 in 10.0 mi NE 3.5 mph - N/A   Clear
12:55 AM 32.0 °F 28.7 °F 23.0 °F 69% 30.20 in 10.0 mi NE 3.5 mph - N/A   Clear
1:15 AM 30.2 °F 25.4 °F 23.0 °F 75% 30.20 in 10.0 mi NE 4.6 mph - N/A   Clear
1:35 AM 30.2 °F 25.4 °F 23.0 °F 75% 30.20 in 10.0 mi NNE 4.6 mph - N/A   Clear
2:15 AM 30.2 °F 26.7 °F 23.0 °F 75% 30.22 in 10.0 mi North 3.5 mph - N/A   Clear
2:35 AM 26.6 °F 20.0 °F 21.2 °F 80% 30.20 in 10.0 mi NNE 5.8 mph - N/A   Clear
2:55 AM 28.4 °F - 23.0 °F 80% 30.21 in 10.0 mi Calm Calm - N/A   Clear
3:15 AM 30.2 °F - 23.0 °F 75% 30.22 in 10.0 mi Calm Calm - N/A   Clear
3:35 AM 32.0 °F - 23.0 °F 69% 30.23 in 10.0 mi Calm Calm - N/A   Clear
3:55 AM 26.6 °F - 21.2 °F 80% 30.23 in 10.0 mi Calm Calm - N/A   Clear
4:15 AM 26.6 °F - 21.2 °F 80% 30.23 in 10.0 mi Calm Calm - N/A   Clear
4:35 AM 26.6 °F - 21.2 °F 80% 30.24 in 10.0 mi Calm Calm - N/A   Clear
4:55 AM 26.6 °F - 21.2 °F 80% 30.24 in 10.0 mi Calm Calm - N/A   Clear
5:15 AM 24.8 °F - 19.4 °F 80% 30.25 in 10.0 mi Calm Calm - N/A   Clear
5:35 AM 24.8 °F - 21.2 °F 86% 30.25 in 10.0 mi Calm Calm - N/A   Clear
5:55 AM 23.0 °F - 19.4 °F 86% 30.26 in 10.0 mi Calm Calm - N/A   Clear
6:15 AM 23.0 °F - 21.2 °F 93% 30.26 in 10.0 mi Calm Calm - N/A   Clear
6:35 AM 23.0 °F 18.4 °F 19.4 °F 86% 30.26 in 10.0 mi NE 3.5 mph - N/A   Clear
6:55 AM 21.2 °F 16.4 °F 19.4 °F 93% 30.27 in 10.0 mi NNE 3.5 mph - N/A   Clear
7:15 AM 24.8 °F - 21.2 °F 86% 30.28 in 10.0 mi Calm Calm - N/A   Clear
7:35 AM 23.0 °F 18.4 °F 21.2 °F 93% 30.30 in 10.0 mi West 3.5 mph - N/A   Clear
7:55 AM 26.6 °F 21.2 °F 23.0 °F 86% 30.31 in 10.0 mi West 4.6 mph - N/A   Clear
8:15 AM 30.2 °F 25.4 °F 24.8 °F 80% 30.31 in 10.0 mi WSW 4.6 mph - N/A   Clear
8:35 AM 30.2 °F - 26.6 °F 86% 30.32 in 10.0 mi Calm Calm - N/A   Clear
8:55 AM 32.0 °F - 26.6 °F 80% 30.33 in 10.0 mi Calm Calm - N/A   Clear
9:15 AM 33.8 °F 29.6 °F 28.4 °F 81% 30.34 in 10.0 mi West 4.6 mph - N/A   Clear
9:35 AM 35.6 °F 30.7 °F 26.6 °F 70% 30.35 in 10.0 mi West 5.8 mph - N/A   Clear
9:55 AM 37.4 °F 32.1 °F 26.6 °F 65% 30.36 in 10.0 mi WNW 6.9 mph - N/A   Clear
10:15 AM 39.2 °F 33.6 °F 23.0 °F 52% 30.36 in 10.0 mi North 8.1 mph - N/A   Clear
10:35 AM 39.2 °F 34.2 °F 23.0 °F 52% 30.37 in 10.0 mi NW 6.9 mph - N/A   Clear
10:55 AM 41.0 °F 35.2 °F 23.0 °F 49% 30.37 in 10.0 mi NW 9.2 mph - N/A   Clear
11:15 AM 41.0 °F 35.2 °F 23.0 °F 49% 30.38 in 10.0 mi NNW 9.2 mph - N/A   Clear
11:55 AM 42.8 °F 36.6 °F 23.0 °F 46% 30.38 in 10.0 mi North 11.5 mph - N/A   Clear
12:15 PM 42.8 °F 37.0 °F 21.2 °F 42% 30.38 in 10.0 mi North 10.4 mph 17.3 mph N/A   Clear
12:35 PM 42.8 °F 38.0 °F 23.0 °F 46% 30.38 in 10.0 mi North 8.1 mph - N/A   Clear
12:55 PM 42.8 °F 38.6 °F 23.0 °F 46% 30.37 in 10.0 mi North 6.9 mph - N/A   Clear
1:15 PM 42.8 °F 40.1 °F 23.0 °F 46% 30.37 in 10.0 mi NNE 4.6 mph - N/A   Clear
1:35 PM 44.6 °F 40.7 °F 23.0 °F 43% 30.35 in 10.0 mi North 6.9 mph - N/A   Clear
2:15 PM 44.6 °F 40.7 °F 23.0 °F 43% 30.33 in 10.0 mi NNW 6.9 mph - N/A   Clear
3:15 PM 46.4 °F - 23.0 °F 40% 30.31 in 10.0 mi Calm Calm - N/A   Clear
3:35 PM 46.4 °F 44.3 °F 23.0 °F 40% 30.31 in 10.0 mi NW 4.6 mph - N/A   Clear
3:55 PM 46.4 °F 45.2 °F 23.0 °F 40% 30.31 in 10.0 mi West 3.5 mph - N/A   Clear
4:15 PM 46.4 °F 42.9 °F 23.0 °F 40% 30.30 in 10.0 mi NNW 6.9 mph - N/A   Clear
4:55 PM 46.4 °F 43.5 °F 21.2 °F 37% 30.29 in 10.0 mi NE 5.8 mph - N/A   Clear
5:15 PM 46.4 °F - 21.2 °F 37% 30.28 in 10.0 mi Calm Calm - N/A   Clear
5:35 PM 44.6 °F 43.1 °F 21.2 °F 39% 30.29 in 10.0 mi ENE 3.5 mph - N/A   Clear
6:35 PM 37.4 °F 32.8 °F 21.2 °F 52% 30.28 in 10.0 mi NE 5.8 mph - N/A   Clear
6:55 PM 35.6 °F 30.7 °F 21.2 °F 56% 30.28 in 10.0 mi ENE 5.8 mph - N/A   Clear
7:15 PM 37.4 °F 32.1 °F 21.2 °F 52% 30.28 in 10.0 mi ENE 6.9 mph - N/A   Clear
7:35 PM 37.4 °F 32.8 °F 21.2 °F 52% 30.28 in 10.0 mi East 5.8 mph - N/A   Clear
7:55 PM 35.6 °F 29.9 °F 21.2 °F 56% 30.28 in 10.0 mi East 6.9 mph - N/A   Clear
8:15 PM 35.6 °F 30.7 °F 21.2 °F 56% 30.29 in 10.0 mi East 5.8 mph - N/A   Clear
8:35 PM 33.8 °F 29.6 °F 21.2 °F 60% 30.30 in 10.0 mi ENE 4.6 mph - N/A   Clear
8:55 PM 32.0 °F 25.6 °F 21.2 °F 64% 30.28 in 10.0 mi ENE 6.9 mph - N/A   Clear
9:15 PM 33.8 °F 28.6 °F 23.0 °F 65% 30.30 in 10.0 mi ENE 5.8 mph - N/A   Clear
9:35 PM 33.8 °F 29.6 °F 23.0 °F 65% 30.30 in 10.0 mi East 4.6 mph - N/A   Clear
9:55 PM 33.8 °F 29.6 °F 23.0 °F 65% 30.30 in 10.0 mi East 4.6 mph - N/A   Clear
10:15 PM 33.8 °F 28.6 °F 23.0 °F 65% 30.31 in 10.0 mi East 5.8 mph - N/A   Clear
10:35 PM 32.0 °F 26.4 °F 23.0 °F 69% 30.30 in 10.0 mi ENE 5.8 mph - N/A   Clear
10:55 PM 33.8 °F 27.0 °F 23.0 °F 65% 30.30 in 10.0 mi ENE 8.1 mph - N/A   Clear
11:15 PM 33.8 °F 27.7 °F 23.0 °F 65% 30.30 in 10.0 mi ENE 6.9 mph - N/A   Clear
11:35 PM 33.8 °F 27.7 °F 23.0 °F 65% 30.31 in 10.0 mi ENE 6.9 mph - N/A   Clear
11:55 PM 32.0 °F 25.6 °F 23.0 °F 69% 30.31 in 10.0 mi ENE 6.9 mph - N/A   Clear